Location: Bettgenhausen
(50.6463°N, 7.5681°E)
Time: 19:07:39
(UTC+00:00)

Cosmos 1092 Rocket - Pass Details

Date: 27 February 2020
Orbit: 955 x 994 km, 82.9° (Epoch: 30 March)

Event Time Altitude Azimuth Distance (km) Brightness Sun altitude
Rises 18:43:18 0° 352° (N) 3,724 7.2 -16.1°
Reaches altitude 10° 18:45:54 10° 356° (N) 2,772 6.5 -16.5°
Maximum altitude 18:52:11 58° 75° (ENE) 1,154 4.1 -17.4°
Drops below altitude 10° 18:58:24 10° 154° (SSE) 2,750 6.0 -18.4°
Enters shadow 18:58:48 - 155° (SSE) 2,895 6.2 -18.5°
